Regional Weather Roundup
Issued by NWS Little Rock, AR

Home | Current Version | Previous Version | Text Only | Print | Product List | Glossary On
Versions: 1 2 3 4 5 6 7 8 9 10 11 12 13 14 15 16 17 18 19 20 21 22 23 24 25 26 27 28 29 30
000
ASUS44 KLZK 181105
RWRLZK

WEATHER ROUNDUP FOR ARKANSAS
NATIONAL WEATHER SERVICE LITTLE ROCK AR
500 AM CST SUN FEB 18 2018

NOTE: "FAIR" INDICATES FEW OR NO CLOUDS BELOW 12,000 FEET WITH NO
SIGNIFICANT WEATHER AND/OR OBSTRUCTIONS TO VISIBILITY.

ARZ001-003-010-029-181200-
NORTHWEST ARKANSAS

CITY           SKY/WX    TMP DP  RH WIND       PRES   REMARKS
FAYETTEVILLE   FOG       26  26 100 S3        30.19S VSB 1/4
FORT SMITH     FOG       37  37 100 E9        30.21F VSB 1/2
HARRISON       FOG       26  26 100 SE8       30.21F VSB 3/4 WCI  18
HIGHFILL       CLOUDY    29  29 100 CALM      30.18S FOG
$$

ARZ004-005-016-181200-
NORTH CENTRAL ARKANSAS

CITY           SKY/WX    TMP DP  RH WIND       PRES   REMARKS
MTN HOME       FOG       28  28 100 CALM      30.24R VSB 1/4
$$

ARZ040-041-181200-
WEST CENTRAL ARKANSAS

CITY           SKY/WX    TMP DP  RH WIND       PRES   REMARKS
MENA           CLOUDY    41  39  93 CALM      30.21S VSB 1/4
MOUNT IDA      FOG       35  35 100 CALM      30.20S VSB 3/4
$$

ARZ009-017-025-026-028-181200-
NORTHEAST ARKANSAS

CITY           SKY/WX    TMP DP  RH WIND       PRES   REMARKS
JONESBORO      FOG       33  33 100 NE3       30.29S VSB 1/4
NEWPORT        FOG       32  32 100 CALM      30.29S VSB 1/4
BLYTHEVILLE    FOG       33  33 100 NE3       30.31R VSB 1/4
$$

ARZ022-023-033-042-044-181200-
CENTRAL ARKANSAS

CITY           SKY/WX    TMP DP  RH WIND       PRES   REMARKS
LITTLE ROCK    FOG       34  34 100 CALM      30.27R VSB 1/4
N LITTLE ROCK    N/A     38  37  99 E8        30.25R
JACKSONVILLE   FOG       33  32  99 CALM      30.26R VSB 5/8
SEARCY         MOCLDY    31  31 100 N3        30.29R
HOT SPRINGS    CLOUDY    40  40 100 E7        30.24R
RUSSELLVILLE   FOG       32  32 100 CALM      30.26R VSB 1/4
CLINTON        FOG       30  30 100 CALM      30.28R VSB<1/4
$$

ARZ036-181200-
EAST ARKANSAS

CITY           SKY/WX    TMP DP  RH WIND       PRES   REMARKS
WEST MEMPHIS   FOG       35  35 100 NE5       30.28R VSB 1/2 WCI  31
$$

ARZ050-053-066-070-073-181200-
SOUTHWEST ARKANSAS

CITY           SKY/WX    TMP DP  RH WIND       PRES   REMARKS
ARKADELPHIA    CLOUDY    41  41 100 NE5       30.26R FOG
CAMDEN         FOG       41  39  93 CALM      30.24R VSB<1/4
TEXARKANA      CLOUDY    45  44  97 E6        30.21S
EL DORADO      CLOUDY    45  45 100 NE8       30.22S
DE QUEEN       CLOUDY    42  42 100 E7        30.20S
$$

ARZ056-057-069-181200-
SOUTHEAST ARKANSAS

CITY           SKY/WX    TMP DP  RH WIND       PRES   REMARKS
PINE BLUFF     FAIR      41  40  96 NE6       30.26R
MONTICELLO     FAIR      42  40  92 E7        30.24R

$$






USA.gov is the U.S. government's official web portal to all federal, state and local government web resources and services.